星链-5329 (STARLINK-5329 )

导读

STARLINK-5329是美国太空探索技术公司(SpaceX)的星链(Starlink)卫星,于2023年5月14日发射升空,属于星链互联网卫星星座的组成部分。星链项目旨在为全球提供高速低延迟互联网覆盖,该卫星加入后进一步扩充了星链星座的规模,推进了全球卫星互联网组网进程。

Basic Information
目录编号:
56513
目录名称:
STARLINK-5329
国际标识:
2023-065L
轨道中心:
EARTH
卫星名称:
星链-5329
卫星全名:
星链-5329 (STARLINK-5329 )
卫星状态:
在轨 (已飞行1217 天)
发射日期:
2023-05-14 UTC
国别 :
美国 (US)
星等 :
--
This satellite is enrolled in the Space Conjunction Data Service (SCDS) and the current flight risk assessment level is: High Risk
Orbit Information
数据来源 国际轨道数据
星历时间: 2026-09-12T15:41:18+0800
6小时前
查看轨道信息
半长轴: 6861.23km
偏心率: 0.0001079
轨道倾角: 43.001°
近地点辐角 266.464°
升交点赤经 238.390°
平近点角 93.609°
近地点: 482.352km
远地点: 483.834km
周期: 94.268分钟
每日圈数: 15.275656
Detailed Information
固有亮度:
5
最大亮度:
2.5
卫星平台:
Starlink v1.5
覆盖范围:
全球
运营商:
太空探索技术公司
运营商所在国:
美国
制造商(研发单位):
太空探索技术公司
制造商所在国:
美国
使用方式:
暂无
Satellite Introduction
星链(Starlink)计划是由太空探索技术公司(SpaceX)提出的一个巨型低轨卫星互联网星座项目,计划在2019年至2024年间在太空搭建由约1.2万颗卫星组成的“星链”网络,其中1584颗将部署在地球上空550千米处的近地轨道,并从2020年开始工作。该卫星仍在工作。
2D Orbit Map
3D Orbit Map
Orbit Altitude Analysis Chart
Orbit Inclination Analysis Chart
Orbit Comprehensive Analysis Chart
View Comprehensive Chart
Conjunction Data List
Event ID Objects TCA Miss Dist (km) Collision Risk Probability Collision Risk Index (CRI) Action
CDM_260914-154805-651306-733821
2026-09-14T
15:48:51+0000
0.319 km
远距离
1.610524E-4 高风险 0.79
CDM_260914-181005-651306-733821
2026-09-14T
18:10:05+0000
0.421 km
远距离
8.423133E-5 中风险 0.74
CDM_260914-203705-651306-249221
2026-09-14T
20:37:45+0000
0.680 km
远距离
5.34708E-5 中风险 0.7
CDM_260914-221105-651306-249221
2026-09-14T
22:11:54+0000
1.766 km
极远距离
2.358946E-6 低风险 0.42
CDM_260915-051505-651306-249221
2026-09-15T
05:15:35+0000
2.205 km
极远距离
1.370422E-6 低风险 0.38
CDM_260914-163505-651306-733821
2026-09-14T
16:35:55+0000
1.843 km
极远距离
8.905656E-7 极低风险 0.34
CDM_260914-141405-651306-733821
2026-09-14T
14:14:41+0000
2.201 km
极远距离
6.106997E-7 极低风险 0.31
CDM_260914-172305-651306-733821
2026-09-14T
17:23:00+0000
2.217 km
极远距离
6.030652E-7 极低风险 0.31
Miss Distance Evolution Trend with All Objects
Collision Probability Evolution Trend with All Objects